Dewpoint
4 6 7 -2 -3 -3 -3 -4 -5 -7 -8 -8 -2 -2 -2 -2 -2 -4 -2 -0 -2 -5 -4 -0 1 -0 -1 -1 -1 -2 1 2 1 -1 -2 -5 -6 -8 -8 -7 -8 -9 -7 -3 -4
4 7 6 0 -4 -2 -3 -4 -5 -6 -9 -7 -2 -2 -3 -3 -3 -4 -2 -2 -5 -6 -1 0 -2 -5 -3 -3 -2 -2 2 -1 -8 -10 -9 -9 -8 -7 -7 -8 -10 -8 -6 -5 -5
4 4 3 1 -4 -3 -4 -4 -4 -6 -9 -7 -2 -2 -3 -3 -3 -3 -3 -4 -6 -6 -1 -3 -6 -6 -6 -5 -3 -4 -1 -5 -8 -5 -6 -6 -6 -7 -7 -6 -4 -5 -5 -5 -5
3 2 2 -2 -5 -4 -3 -4 -4 -6 -9 -6 -2 -2 -3 -4 0 -3 -3 -4 -6 -6 -2 -3 -5 -5 -5 -3 -6 -4 -7 -8 -7 -5 -5 -6 -6 -6 -7 -6 -5 -6 -6 -6 -4
2 2 0 -3 -3 -4 -3 -4 -4 -6 -8 -7 -2 -2 -3 0 -1 -2 -4 -4 -5 -6 -2 -4 -4 -5 -3 -7 -7 -5 -6 -7 -8 -7 -6 -6 -6 -6 -6 -6 -6 -5 -4 -3 -3
1 1 -2 -6 -4 -5 -4 -3 -4 -5 -8 -7 -2 -2 -3 1 -3 -3 -4 -4 -5 -5 -4 -4 -4 -4 -4 -5 -5 -6 -6 -7 -9 -9 -8 -6 -6 -6 -6 -6 -6 -5 -3 -2 -2
-1 -1 -5 -6 -4 -4 -4 -4 -5 -7 -9 -7 -2 -3 -1 0 -2 -1 -4 -3 -3 -3 -4 -4 -4 -4 -4 -4 -6 -6 -6 -7 -8 -8 -6 -6 -4 -4 -6 -7 -6 -5 -3 -2 -1
-1 -2 -5 -6 -6 -4 -4 -5 -5 -7 -9 -6 -2 -3 1 -2 -1 -3 -3 -3 -3 -3 -4 -3 -4 -4 -4 -4 -6 -6 -6 -3 -6 -7 -5 -5 -3 -5 -7 -7 -6 -6 -4 -3 -1
-2 -2 -6 -5 -5 -4 -4 -5 -6 -8 -9 -3 -2 -1 -0 -2 -2 -3 -3 -4 -4 -4 -4 -4 -4 -3 -3 -3 -3 -5 -4 -5 -3 -8 -6 -5 -4 -5 -7 -7 -6 -6 -4 -3 -2
-2 -3 -5 -5 -4 -4 -3 -5 -8 -9 -7 -2 -1 -0 -3 -2 -3 -3 -3 -4 -3 -3 -4 -4 -3 -2 -2 -3 -2 -5 -5 -7 -7 -6 -7 -7 -6 -6 -7 -7 -7 -6 -4 -3 -2
-3 -4 -4 -3 -3 -2 -4 -8 -5 0 2 -2 -2 -5 -3 -3 -3 -3 -3 -3 -3 -3 -1 -3 -0 1 -2 -5 -7 -6 -6 -6 -8 -6 -6 -5 -5 -6 -6 -6 -6 -6 -4 -2 -2
-3 -4 -4 -2 -2 -2 -5 1 -7 -3 -1 -4 -3 -1 -2 -2 -4 -3 -3 -3 -3 -1 -2 -1 0 -2 -4 -6 -6 -6 -5 -5 -6 -6 -5 -5 -5 -6 -6 -5 -6 -6 -4 -2 -2
-3 -4 -3 -1 -1 -3 -6 -3 -3 -5 -3 -2 -2 -5 -3 -2 -3 -3 -3 -3 -3 -1 -1 0 -1 -6 -6 -6 -5 -5 -4 -5 -5 -6 -6 -5 -3 -4 -5 -5 -6 -6 -4 -3 -2
-2 -2 -4 -2 -1 -4 -5 -1 -4 -7 -2 -3 -2 -2 -5 -2 -2 -4 -3 -3 -3 -1 -2 -1 -3 -6 -6 -5 -6 -3 -6 -6 -5 -5 -2 -4 -2 -2 -4 -4 -5 -5 -4 -3 -2
2 -1 -4 -3 -1 -1 -7 -7 -3 -3 3 -4 -2 -3 -4 -2 -3 -4 -4 -4 -3 -3 -4 -3 -3 -3 -3 -5 -6 -4 -5 -5 -4 -3 -3 -3 -2 -4 -4 -2 -3 -4 -4 -3 -3
2 -0 -2 -0 -0 -4 -3 -6 -2 1 2 -4 -3 -3 -2 -2 -3 -4 -4 -4 -4 -4 -5 -4 -6 -6 -5 -6 -6 -4 -4 -3 -3 -2 0 -3 -2 -1 -2 -3 -4 -5 -4 -3 -2
3 1 -0 -2 -0 -3 -5 -2 2 3 -5 -2 -2 -3 -2 -1 -2 -4 -3 -3 -2 -1 -1 -3 -4 -6 -6 -3 -4 -4 -3 1 3 2 1 -4 -3 -4 -4 -6 -6 -5 -4 -3 -2
5 2 0 -3 -1 -4 -1 -1 3 -2 -3 -4 -3 -3 -1 -3 -2 -3 -2 -2 -3 -3 -2 -1 -1 -4 -5 -4 -3 -2 -3 -1 1 -0 -1 -3 -0 -3 -6 -7 -7 -6 -5 -3 -2
7 4 2 -1 -0 -1 -1 3 1 -3 -4 -2 -2 -1 -1 -3 -3 -3 -3 -2 -3 -4 -1 -3 -2 -5 -5 -5 -5 -2 -1 -4 -2 -5 -3 -6 -5 -6 -6 -6 -7 -6 -5 -3 -2
6 5 5 -3 0 0 0 2 -1 -5 -5 -3 -1 -2 -0 -2 -2 -3 -3 -4 -3 -4 -5 -5 -1 -4 -4 -5 -5 -3 -4 -2 -3 -2 -0 -3 -5 -3 -5 -5 -5 -6 -5 -4 -3
5 4 2 1 1 0 1 0 -1 -6 -4 -3 -2 -2 -2 -1 -2 -2 -4 -4 -5 -4 -5 -5 -4 -2 -4 -2 -2 -3 -3 -4 -3 -2 -1 -3 -3 -8 -5 -6 -5 -6 -5 -4 -3
4 3 1 -0 2 1 1 -1 -2 -3 -4 -2 -2 -3 -3 -2 -2 -3 -2 -3 -5 -5 -3 -5 -3 -1 -2 -5 -6 -4 -4 -4 -2 -4 -3 -2 -1 -7 -6 -6 -6 -6 -6 -4 -3
2 5 3 1 1 2 0 -0 -1 -1 -2 -2 -1 -2 -4 -3 -1 -3 -2 -4 -4 -4 -3 -5 -3 -1 -1 -3 -5 -4 -4 -4 -4 -4 -2 -1 -2 -6 -7 -6 -6 -6 -6 -4 -3
3 5 4 3 0 -1 0 1 1 -1 -1 -3 -3 -3 -3 -2 -3 -2 -1 -2 -4 -3 -4 -4 -3 -2 -1 -3 -3 -3 -4 -4 -4 -2 -3 -4 -5 -5 -5 -5 -5 -5 -5 -3 -2
3 2 2 4 2 -0 -1 0 1 2 -1 -3 -2 -2 -2 -2 -2 -2 -1 -0 -2 -3 -4 -2 -0 -2 -3 -5 -6 -4 -4 -4 -3 -4 -3 -5 -5 -7 -7 -5 -6 -5 -4 -2 -1
3 1 1 1 -0 1 1 1 1 1 -0 -1 -2 -2 -3 -3 -2 -3 -1 -1 -1 -1 -2 -2 0 -2 -2 -3 -4 -2 -3 -4 -4 -4 -5 -5 -4 -7 -6 -5 -5 -6 -4 -2 -1
3 1 -0 1 2 2 2 1 1 1 -1 -3 -3 -2 -2 -3 -4 -4 -4 -4 -2 -1 -1 -0 -1 -1 0 -3 -1 1 -1 -2 -4 -5 -5 -3 -5 -3 -2 -3 -3 -4 -5 -3 -1
Wind_Speed
17 14 13 10 9 7 7 5 8 8 7 6 8 7 6 6 6 7 4 4 5 4 3 2 1 2 3 4 2 4 3 4 4 3 1 9 1 4 1 5 9 7 4 1 9
17 16 15 13 11 9 7 5 8 9 8 7 7 7 6 7 7 10 7 8 7 5 5 4 5 3 10 3 2 3 3 5 6 8 5 5 2 5 7 11 13 7 7 4 7
18 18 14 14 13 11 7 8 9 10 8 8 7 7 6 5 5 7 10 9 7 6 5 4 2 4 4 3 7 5 5 5 6 8 9 6 7 4 5 6 6 6 8 7 7
19 19 16 14 12 10 10 10 10 11 8 8 8 7 5 3 2 1 12 11 8 7 3 3 5 8 1 4 3 3 13 5 4 3 2 6 5 5 11 5 3 2 7 8 7
19 19 17 14 13 13 12 11 12 10 8 9 8 7 5 4 10 7 8 13 10 8 5 7 8 4 5 0 1 8 12 5 4 4 6 8 10 10 11 2 1 2 3 4 5
19 20 19 15 14 12 11 11 11 10 8 9 8 6 5 8 4 8 5 13 12 9 5 6 6 5 7 6 4 9 7 12 13 8 7 2 11 4 7 4 3 1 3 4 5
20 22 20 15 13 14 13 12 11 9 8 8 7 6 8 14 2 6 8 10 11 9 9 6 3 3 9 8 4 7 7 9 15 6 1 4 8 7 8 6 5 7 7 7 8
21 22 20 17 14 13 14 12 10 7 7 7 6 5 7 7 14 10 8 9 12 9 8 10 4 4 4 6 5 5 8 5 5 9 7 5 5 8 8 9 5 9 9 10 10
22 22 21 18 16 16 16 11 10 6 7 6 4 4 8 8 14 13 10 8 8 7 8 6 2 6 4 5 6 8 5 7 5 9 5 7 3 12 9 3 9 13 12 12 12
23 23 21 20 19 17 13 9 9 7 7 5 7 4 14 9 9 10 12 11 10 8 3 4 4 5 5 5 6 6 4 5 3 7 5 5 9 8 19 12 8 15 14 12 12
23 24 22 22 22 19 15 14 6 4 13 11 8 11 7 7 7 12 14 14 12 10 6 12 4 7 13 9 8 5 7 8 8 3 2 7 9 8 19 16 13 18 18 14 15
24 24 23 23 21 20 21 10 8 5 5 21 20 12 15 8 4 11 17 14 11 9 13 6 8 11 8 5 4 5 8 9 8 7 2 8 9 9 5 8 18 21 21 17 18
25 23 24 23 20 23 25 13 11 7 3 7 23 26 20 15 8 13 18 19 12 10 13 13 7 5 3 3 3 7 8 8 5 1 8 4 8 8 4 11 18 20 21 19 19
25 24 26 23 20 21 25 17 7 6 2 5 11 9 24 9 8 15 23 19 7 11 12 13 13 7 5 5 6 7 5 4 5 2 3 6 4 3 8 6 6 18 23 22 20
27 26 27 26 8 24 16 19 11 9 4 5 8 7 15 16 9 10 12 15 8 7 7 3 7 5 6 8 5 6 2 2 4 5 6 6 2 7 14 9 9 12 19 23 22
29 28 26 25 19 17 11 24 13 3 7 5 6 6 7 23 13 6 7 8 9 7 7 5 2 4 2 3 1 4 3 5 4 3 4 9 9 4 10 13 13 20 24 23 22
31 30 33 31 19 25 21 25 4 6 3 5 5 11 13 12 15 7 9 8 7 5 7 6 8 5 8 4 1 3 4 1 2 2 4 2 3 8 10 11 15 20 28 27 25
32 31 32 33 22 25 30 10 8 12 8 5 5 10 13 11 14 12 10 12 14 9 3 10 5 13 7 7 5 7 5 3 4 1 1 1 5 4 5 8 21 33 33 30 26
32 31 33 35 26 32 29 12 7 2 8 9 8 8 8 7 4 9 15 14 13 17 8 5 5 4 5 1 2 4 5 1 3 6 2 5 3 3 6 3 2 13 31 32 29
37 33 24 33 27 28 11 14 10 4 1 8 8 8 8 10 5 10 11 11 15 18 22 4 3 2 2 2 3 2 3 2 2 3 4 5 2 4 7 7 6 7 24 30 29
36 14 19 30 25 22 12 9 7 5 3 5 5 7 7 8 11 11 5 1 12 9 20 5 4 3 5 7 7 3 3 4 1 1 1 3 3 5 7 9 10 13 14 27 27
30 6 28 32 11 13 13 11 20 6 3 0 3 2 5 8 11 9 7 3 2 11 5 6 3 4 4 3 3 1 6 7 3 3 3 3 5 4 6 5 15 18 20 19 23
24 9 30 34 12 13 9 17 18 10 5 5 4 3 1 5 4 8 4 3 9 6 6 6 5 4 2 1 1 4 5 4 2 1 6 2 5 1 2 3 11 14 22 22 24
20 5 11 19 23 15 18 15 19 11 5 9 2 3 3 3 3 4 3 1 3 2 2 2 3 5 4 3 5 4 6 7 6 3 3 8 10 7 8 6 8 12 21 23 21
14 8 17 13 18 13 22 15 20 8 6 13 5 6 6 5 5 4 4 3 1 1 1 1 4 4 7 4 3 3 3 9 9 13 6 11 8 10 5 7 13 16 20 23 23
14 8 18 23 30 18 13 20 20 17 11 7 5 9 7 3 6 5 6 6 4 3 5 1 2 3 3 5 6 5 6 9 9 13 13 13 16 6 8 5 6 13 20 28 27
30 20 21 17 19 18 16 19 16 14 12 16 10 4 7 5 12 9 10 9 8 7 6 5 2 2 3 1 3 5 12 16 13 10 9 12 11 3 3 4 1 4 6 26 27
Wind_Direction
252 253 255 259 257 241 239 253 271 273 270 250 257 259 270 275 267 251 216 265 244 224 176 141 130 263 264 246 279 309 314 271 235 147 279 89 32 316 295 270 286 280 268 153 312
249 250 257 250 253 249 252 245 262 270 264 240 254 263 276 289 279 244 207 247 235 196 145 203 213 217 241 212 237 256 211 286 49 19 10 50 25 322 331 302 305 271 88 4 332
252 254 252 251 248 246 245 245 254 259 258 234 247 262 275 298 298 239 224 217 206 183 171 267 287 271 274 297 223 238 253 46 360 35 10 353 308 311 303 288 60 2 333 288 263
251 255 259 262 237 239 243 250 248 251 250 233 242 255 266 268 255 165 192 208 198 191 159 239 251 247 252 212 206 297 253 325 328 88 334 287 335 301 276 293 53 288 273 295 301
243 252 256 254 242 234 227 233 244 244 247 234 235 254 262 261 267 277 210 199 199 201 189 244 287 307 254 302 286 242 273 5 297 274 241 256 270 254 275 191 277 319 357 323 300
238 238 242 245 230 231 229 234 236 246 242 226 235 252 259 254 258 245 241 204 200 205 220 249 303 11 302 309 309 354 321 295 282 274 283 207 268 158 221 176 192 136 59 31 23
241 234 232 227 231 224 218 230 230 237 241 227 235 252 252 233 288 248 233 212 190 217 250 242 296 297 333 296 327 282 286 273 248 192 139 224 256 206 164 167 176 128 86 66 51
242 232 229 221 216 223 219 219 223 236 238 225 235 249 251 247 240 251 209 195 205 208 211 224 243 276 265 309 268 247 245 253 112 154 170 174 292 151 158 191 150 117 102 78 61
241 231 225 216 210 205 211 208 228 209 229 222 236 212 249 241 244 238 214 196 179 186 210 232 228 261 210 237 274 205 271 221 164 198 141 195 337 146 164 178 174 139 119 98 79
237 232 219 209 207 204 205 195 211 197 218 210 213 230 252 242 235 200 202 191 179 176 192 204 228 222 233 236 249 339 255 296 189 183 211 249 253 199 185 194 223 143 132 115 101
231 229 215 206 199 192 183 163 154 229 208 203 214 205 42 184 209 198 194 183 191 189 209 203 214 232 245 232 239 12 317 299 297 129 145 241 251 251 180 183 220 159 138 128 118
224 224 211 202 198 188 174 180 215 181 209 223 224 218 250 271 252 209 196 190 195 205 224 234 229 250 267 3 344 292 278 275 279 118 103 270 267 230 151 229 217 164 142 142 132
216 216 206 198 191 193 193 195 201 201 277 253 219 220 222 215 246 210 189 207 189 219 231 239 236 31 200 151 274 248 249 268 295 115 224 256 272 221 190 217 195 163 154 157 147
209 209 201 188 193 193 210 176 174 184 271 244 186 230 206 211 249 243 218 196 246 231 238 246 238 197 210 240 221 264 21 308 293 317 260 140 291 142 169 167 149 159 157 162 158
202 201 199 186 161 187 215 177 141 152 253 170 158 170 198 191 159 200 192 224 231 210 246 215 154 194 236 245 250 252 5 282 248 257 299 244 227 266 152 192 193 193 174 170 166
197 195 186 174 161 166 181 161 148 197 245 163 133 176 158 198 212 136 176 194 239 266 222 250 30 202 244 90 39 112 219 215 244 239 261 241 183 200 176 197 186 193 192 175 174
194 190 187 171 170 165 172 156 156 229 63 168 187 172 187 187 215 167 183 195 193 190 222 229 202 161 157 134 144 224 275 249 244 185 231 50 119 253 197 182 177 178 187 181 180
190 185 184 178 171 162 162 170 215 186 224 134 159 169 192 174 204 183 192 208 224 220 231 203 214 174 183 219 184 195 205 219 307 23 154 58 229 234 78 77 177 182 184 180 183
184 179 185 183 174 166 161 198 207 258 139 149 149 185 195 157 154 179 222 214 216 213 217 224 186 32 78 284 204 164 201 2 292 268 335 222 202 359 91 79 341 184 174 181 185
173 170 199 180 173 168 172 211 204 91 83 158 180 197 175 169 168 184 196 213 223 203 221 291 111 199 92 36 291 302 312 160 228 252 240 255 259 207 193 195 203 223 177 182 185
160 147 199 189 172 187 199 197 236 139 172 184 271 194 186 170 199 190 221 263 202 179 200 247 235 118 131 207 178 187 245 220 193 242 225 332 280 332 193 183 190 210 210 182 181
160 163 183 171 177 199 206 189 225 205 163 315 274 279 220 157 185 196 230 116 97 129 164 209 313 174 192 77 57 261 211 203 166 248 221 139 277 17 8 151 176 197 204 181 184
164 119 168 176 198 191 193 213 232 215 177 184 234 249 350 155 193 218 113 342 128 147 173 171 230 162 135 164 221 219 202 252 314 49 231 219 259 243 235 214 176 185 185 189 180
162 135 165 202 218 183 192 206 216 216 226 211 171 150 156 196 102 171 113 75 184 171 159 140 278 227 173 118 124 196 203 198 201 211 236 229 264 230 215 213 187 190 176 165 165
189 162 173 184 205 210 184 199 201 177 212 197 201 215 190 167 156 187 113 119 38 250 163 172 233 253 277 136 118 309 251 203 206 241 230 262 280 280 324 187 218 199 176 166 167
196 184 161 169 190 200 214 201 204 191 175 197 214 198 236 201 186 175 139 171 179 167 196 186 264 31 306 310 210 228 253 263 237 232 245 259 273 295 312 41 19 197 189 177 177
198 221 160 169 187 193 205 208 204 184 214 197 202 233 203 217 93 96 65 73 148 150 188 149 181 151 255 172 353 284 222 230 241 244 237 246 251 137 32 75 326 312 300 187 179
Height
1524 1525 1526 1526 1526 1525 1526 1526 1527 1528 1527 1527 1528 1528 1528 1528 1528 1528 1529 1531 1531 1530 1530 1531 1531 1532 1532 1532 1532 1531 1534 1534 1524 1524 1524 1525 1529 1530 1530 1531 1531 1531 1532 1533 1534
1521 1522 1523 1524 1525 1525 1524 1524 1526 1528 1527 1526 1527 1528 1528 1527 1527 1526 1528 1529 1530 1530 1531 1531 1531 1532 1532 1532 1532 1532 1535 1527 1523 1523 1525 1526 1529 1530 1532 1530 1529 1529 1532 1532 1533
1517 1518 1520 1521 1521 1522 1522 1524 1525 1527 1526 1525 1526 1527 1527 1527 1526 1524 1526 1528 1530 1531 1531 1532 1532 1531 1530 1531 1530 1529 1532 1525 1525 1526 1527 1528 1530 1530 1530 1530 1529 1530 1530 1530 1531
1513 1515 1516 1517 1519 1519 1521 1523 1524 1525 1524 1525 1526 1526 1526 1527 1528 1523 1524 1527 1529 1530 1531 1532 1532 1530 1530 1530 1528 1531 1526 1525 1526 1528 1530 1530 1529 1530 1529 1529 1528 1529 1529 1529 1529
1510 1511 1513 1514 1516 1518 1520 1522 1522 1522 1522 1524 1525 1525 1526 1526 1524 1523 1523 1526 1528 1530 1530 1531 1531 1529 1529 1527 1528 1529 1526 1526 1526 1527 1529 1529 1529 1529 1527 1526 1527 1527 1528 1528 1527
1506 1507 1509 1512 1514 1515 1517 1519 1520 1521 1521 1521 1523 1524 1525 1525 1523 1522 1523 1524 1527 1529 1530 1531 1531 1530 1530 1528 1528 1526 1527 1526 1525 1524 1526 1527 1526 1526 1525 1526 1527 1527 1527 1526 1525
1501 1503 1505 1509 1510 1512 1514 1517 1518 1519 1519 1519 1522 1523 1524 1522 1522 1522 1522 1523 1526 1528 1530 1530 1530 1531 1530 1528 1526 1527 1528 1523 1519 1521 1524 1525 1526 1524 1524 1526 1527 1527 1527 1527 1525
1497 1499 1501 1505 1508 1510 1513 1514 1516 1516 1517 1519 1520 1522 1521 1518 1520 1521 1521 1523 1525 1527 1528 1528 1529 1530 1530 1528 1526 1525 1523 1529 1515 1519 1522 1525 1525 1518 1523 1524 1526 1526 1527 1528 1527
1492 1495 1497 1501 1504 1508 1510 1511 1515 1515 1517 1519 1521 1521 1519 1516 1517 1518 1519 1522 1525 1526 1527 1528 1528 1529 1528 1529 1529 1521 1529 1522 1521 1516 1518 1523 1522 1518 1521 1522 1524 1525 1527 1526 1527
1487 1490 1494 1497 1501 1504 1508 1511 1512 1513 1516 1517 1519 1522 1515 1514 1515 1516 1518 1522 1523 1525 1527 1528 1527 1526 1525 1528 1540 1525 1522 1515 1516 1519 1518 1521 1521 1516 1516 1519 1521 1523 1526 1526 1526
1482 1486 1490 1493 1497 1502 1506 1511 1515 1516 1513 1510 1510 1509 1509 1511 1512 1514 1517 1520 1522 1523 1526 1524 1526 1528 1521 1515 1515 1518 1521 1524 1515 1517 1517 1520 1517 1511 1512 1515 1519 1521 1523 1526 1526
1477 1482 1487 1489 1494 1499 1502 1504 1505 1506 1507 1505 1507 1507 1508 1510 1511 1511 1515 1519 1519 1520 1522 1524 1526 1518 1514 1515 1516 1520 1524 1524 1514 1515 1518 1517 1515 1509 1509 1511 1515 1517 1521 1526 1527
1472 1478 1483 1487 1492 1494 1496 1500 1501 1503 1504 1500 1499 1500 1504 1509 1509 1508 1510 1514 1514 1518 1518 1519 1514 1513 1513 1515 1520 1521 1524 1521 1519 1514 1514 1518 1517 1509 1507 1509 1511 1516 1520 1525 1526
1467 1473 1479 1484 1491 1491 1494 1498 1500 1503 1505 1494 1492 1493 1500 1504 1505 1503 1506 1510 1511 1512 1514 1514 1509 1514 1515 1517 1516 1524 1515 1513 1516 1523 1533 1515 1535 1510 1509 1511 1511 1514 1519 1523 1524
1462 1468 1475 1481 1486 1487 1493 1497 1500 1503 1515 1479 1488 1489 1491 1499 1497 1501 1505 1507 1508 1509 1512 1512 1512 1516 1516 1514 1511 1516 1513 1514 1516 1522 1524 1516 1529 1506 1504 1515 1513 1513 1517 1520 1522
1458 1464 1473 1479 1482 1486 1489 1496 1502 1509 1507 1483 1485 1486 1489 1493 1496 1500 1504 1506 1508 1508 1507 1508 1509 1510 1510 1512 1512 1513 1515 1516 1517 1524 1538 1512 1516 1515 1508 1503 1509 1511 1515 1517 1520
1453 1461 1468 1475 1480 1482 1488 1495 1507 1503 1478 1485 1485 1484 1487 1491 1496 1497 1502 1507 1507 1516 1514 1509 1510 1507 1510 1515 1514 1516 1520 1531 1538 1540 1532 1500 1511 1501 1491 1488 1494 1502 1509 1514 1518
1450 1459 1465 1472 1476 1480 1487 1493 1498 1475 1476 1476 1481 1483 1487 1485 1490 1494 1498 1504 1502 1502 1505 1513 1513 1503 1506 1508 1511 1516 1516 1524 1532 1527 1519 1505 1519 1497 1483 1484 1487 1494 1502 1507 1514
1448 1456 1462 1465 1471 1476 1481 1491 1479 1465 1467 1478 1481 1486 1484 1481 1487 1492 1495 1495 1494 1498 1505 1501 1503 1501 1501 1503 1505 1507 1518 1505 1517 1506 1519 1505 1492 1491 1487 1489 1490 1494 1498 1503 1508
1441 1451 1457 1462 1469 1473 1475 1472 1469 1467 1470 1472 1477 1476 1482 1482 1489 1489 1490 1480 1486 1487 1491 1491 1509 1502 1506 1505 1505 1508 1507 1518 1516 1527 1525 1501 1489 1495 1494 1493 1492 1494 1496 1500 1505
1439 1449 1452 1460 1467 1469 1460 1464 1467 1467 1469 1471 1470 1472 1470 1480 1483 1485 1478 1477 1478 1480 1485 1490 1493 1509 1506 1506 1503 1511 1509 1507 1507 1508 1521 1523 1505 1483 1484 1486 1490 1492 1495 1498 1503
1434 1441 1449 1456 1462 1459 1459 1457 1462 1463 1468 1469 1470 1463 1467 1470 1479 1481 1479 1474 1477 1479 1487 1487 1492 1509 1500 1495 1495 1497 1498 1501 1514 1510 1509 1514 1513 1481 1482 1482 1485 1489 1492 1496 1500
1426 1440 1450 1454 1451 1453 1457 1459 1461 1464 1465 1467 1467 1465 1465 1469 1478 1474 1472 1480 1478 1480 1484 1486 1494 1498 1504 1502 1498 1497 1493 1494 1496 1501 1510 1517 1505 1483 1481 1480 1482 1485 1488 1493 1497
1422 1434 1445 1445 1445 1445 1452 1454 1458 1460 1461 1463 1463 1464 1466 1468 1470 1472 1476 1481 1481 1480 1482 1483 1485 1486 1494 1491 1489 1496 1492 1492 1500 1510 1502 1501 1491 1486 1483 1482 1482 1484 1486 1490 1495
1412 1414 1421 1431 1438 1439 1444 1447 1451 1457 1459 1460 1463 1462 1464 1468 1471 1472 1475 1481 1482 1482 1482 1484 1488 1481 1479 1478 1482 1486 1488 1491 1497 1493 1503 1491 1490 1479 1478 1480 1478 1480 1484 1488 1492
1406 1405 1416 1422 1432 1436 1436 1437 1444 1450 1454 1457 1459 1460 1461 1465 1466 1469 1470 1475 1477 1485 1484 1483 1487 1480 1483 1479 1482 1488 1486 1486 1486 1485 1485 1486 1486 1476 1475 1474 1475 1478 1480 1482 1486
1404 1404 1406 1413 1422 1428 1426 1433 1439 1446 1449 1450 1455 1459 1461 1462 1463 1466 1467 1468 1472 1478 1482 1484 1485 1488 1493 1481 1485 1493 1482 1479 1477 1477 1478 1486 1476 1474 1474 1475 1476 1478 1478 1480 1483